GW4615 Weather Reports


time (UTC)temp
C
wind
direction
speed
KPH
gust
KPH
rain 1hr
cm
rain 24hr
cm
rain mn
cm
humidity
%
barometer
mb
20260507233414 15 203 1.6 4.8 0.00 0.00 0.00 39 1011.3
20260507232913 15 220 3.2 9.7 0.00 0.00 0.00 39 1010.9
20260507232409 16 177 3.2 3.2 0.00 0.00 0.00 39 1011.3
20260507231906 16 206 3.2 12.9 0.00 0.00 0.00 36 1011.1
20260507231402 16 121 3.2 9.7 0.00 0.00 0.00 39 1011.0
20260507230859 16 117 4.8 9.7 0.00 0.00 0.00 37 1011.0
20260507230356 16 266 4.8 9.7 0.00 0.00 0.00 42 1010.9
20260507225856 16 99 1.6 3.2 0.00 0.00 0.00 40 1010.9
20260507225353 16 125 3.2 4.8 0.00 0.00 0.00 40 1010.7
20260507224848 16 162 3.2 4.8 0.00 0.00 0.00 38 1010.7
20260507224345 16 149 8.0 11.3 0.00 0.00 0.00 38 1010.5
20260507223841 16 137 6.4 9.7 0.00 0.00 0.00 36 1010.6
20260507223338 16 186 1.6 3.2 0.00 0.00 0.00 37 1010.6
20260507222835 16 294 1.6 9.7 0.00 0.00 0.00 37 1010.3
20260507222331 16 148 9.7 11.3 0.00 0.00 0.00 35 1010.2
20260507221828 17 299 6.4 9.7 0.00 0.00 0.00 37 1010.1
20260507221325 17 187 6.4 12.9 0.00 0.00 0.00 35 1010.1
20260507220821 17 111 1.6 9.7 0.00 0.00 0.00 36 1010.2
20260507220320 18 203 6.4 6.4 0.00 0.00 0.00 36 1010.0
20260507215815 18 224 8.0 22.5 0.00 0.00 0.00 35 1009.9
20260507215313 19 126 6.4 11.3 0.00 0.00 0.00 37 1009.9
20260507214810 19 127 1.6 3.2 0.00 0.00 0.00 36 1009.8
20260507214307 18 102 6.4 11.3 0.00 0.00 0.00 34 1009.8
20260507213802 19 89 6.4 17.7 0.00 0.00 0.00 33 1009.5
20260507213259 18 107 6.4 14.5 0.00 0.00 0.00 37 1009.6
20260507212756 18 80 6.4 11.3 0.00 0.00 0.00 36 1009.6
20260507212252 18 113 8.0 14.5 0.00 0.00 0.00 36 1009.6
20260507211749 18 296 9.7 17.7 0.00 0.00 0.00 33 1009.9
20260507211245 19 31 8.0 12.9 0.00 0.00 0.00 37 1009.6
20260507210742 19 163 9.7 16.1 0.00 0.00 0.00 33 1009.3
20260507210239 18 40 11.3 17.7 0.00 0.00 0.00 36 1009.4
20260507205736 19 40 12.9 16.1 0.00 0.00 0.00 35 1009.5
20260507205232 19 100 9.7 20.9 0.00 0.00 0.00 33 1009.5
20260507204728 18 65 3.2 17.7 0.00 0.00 0.00 34 1009.4
20260507204227 21 187 9.7 11.3 0.00 0.00 0.00 32 1009.4
20260507203724 21 202 8.0 12.9 0.00 0.00 0.00 32 1009.5
20260507203221 20 112 8.0 12.9 0.00 0.00 0.00 34 1009.4
20260507202717 19 91 16.1 17.7 0.00 0.00 0.00 34 1009.5
20260507202214 19 295 3.2 9.7 0.00 0.00 0.00 33 1009.8
20260507201708 19 35 6.4 12.9 0.00 0.00 0.00 35 1009.6
20260507201206 19 43 6.4 16.1 0.00 0.00 0.00 37 1009.8
20260507200702 20 37 6.4 6.4 0.00 0.00 0.00 35 1009.8
20260507200158 20 188 6.4 16.1 0.00 0.00 0.00 36 1009.4
20260507195654 20 161 3.2 14.5 0.00 0.00 0.00 32 1009.9
20260507195152 20 117 6.4 17.7 0.00 0.00 0.00 35 1009.8
20260507194649 20 327 1.6 11.3 0.00 0.00 0.00 31 1009.8
20260507194144 21 109 14.5 20.9 0.00 0.00 0.00 34 1009.8
20260507193641 19 78 4.8 6.4 0.00 0.00 0.00 35 1009.8
20260507193138 20 114 9.7 16.1 0.00 0.00 0.00 35 1009.9
20260507192634 19 145 6.4 11.3 0.00 0.00 0.00 34 1010.0
20260507192131 19 9 4.8 22.5 0.00 0.00 0.00 36 1009.8
20260507191627 19 50 6.4 11.3 0.00 0.00 0.00 37 1009.8
20260507191124 18 59 4.8 9.7 0.00 0.00 0.00 43 1010.0
20260507190621 19 32 8.0 12.9 0.00 0.00 0.00 39 1009.9
20260507190120 19 350 9.7 11.3 0.00 0.00 0.00 38 1010.2
20260507185618 20 104 6.4 16.1 0.00 0.00 0.00 36 1010.0
20260507185114 18 293 1.6 3.2 0.00 0.00 0.00 40 1010.1
20260507184612 19 41 8.0 12.9 0.00 0.00 0.00 41 1010.1
20260507184110 19 197 9.7 16.1 0.00 0.00 0.00 38 1010.2
20260507183606 18 100 11.3 16.1 0.00 0.00 0.00 40 1010.2
20260507183103 19 76 9.7 12.9 0.00 0.00 0.00 40 1010.3
20260507182559 18 91 4.8 6.4 0.00 0.00 0.00 41 1010.2
20260507182055 18 51 8.0 16.1 0.00 0.00 0.00 40 1010.2
20260507181553 18 1 6.4 9.7 0.00 0.00 0.00 40 1010.5
20260507181049 18 64 11.3 12.9 0.00 0.00 0.00 41 1010.3
20260507180545 19 23 12.9 20.9 0.00 0.00 0.00 45 1010.6
20260507180042 19 110 4.8 17.7 0.00 0.00 0.00 38 1010.6
20260507175538 20 288 1.6 16.1 0.00 0.00 0.00 41 1010.5
20260507175037 19 128 6.4 9.7 0.00 0.00 0.00 43 1010.7
20260507174533 19 146 12.9 16.1 0.00 0.00 0.00 40 1010.5
20260507174031 18 84 8.0 14.5 0.00 0.00 0.00 42 1010.8
20260507173527 18 49 3.2 6.4 0.00 0.00 0.00 49 1010.9
20260507173025 18 359 1.6 6.4 0.00 0.00 0.00 44 1011.1
20260507172520 18 89 1.6 16.1 0.00 0.00 0.00 44 1011.0
20260507172017 18 346 3.2 9.7 0.00 0.00 0.00 43 1011.2
20260507171513 17 93 6.4 24.1 0.00 0.00 0.00 44 1011.4
20260507171011 17 43 3.2 11.3 0.00 0.00 0.00 46 1011.5
20260507170507 17 28 6.4 12.9 0.00 0.00 0.00 49 1011.3
20260507170004 16 59 8.0 11.3 0.00 0.00 0.00 49 1011.4
20260507165459 17 48 9.7 12.9 0.00 0.00 0.00 48 1011.5
20260507164956 17 63 4.8 9.7 0.00 0.00 0.00 48 1011.7
20260507164453 16 62 6.4 20.9 0.00 0.00 0.00 48 1011.8
20260507163949 17 41 17.7 20.9 0.00 0.00 0.00 46 1011.9
20260507163447 17 40 9.7 17.7 0.00 0.00 0.00 49 1011.9
20260507162944 17 26 9.7 12.9 0.00 0.00 0.00 52 1012.0
20260507162439 16 78 6.4 14.5 0.00 0.00 0.00 48 1012.1
20260507161936 17 143 3.2 11.3 0.00 0.00 0.00 45 1012.2
20260507161432 16 76 6.4 11.3 0.00 0.00 0.00 48 1012.2
20260507160929 16 60 9.7 16.1 0.00 0.00 0.00 51 1012.5
20260507160425 16 76 9.7 12.9 0.00 0.00 0.00 54 1012.3
20260507155921 15 52 9.7 11.3 0.00 0.00 0.00 53 1012.5
20260507155417 16 31 4.8 14.5 0.00 0.00 0.00 50 1012.6
20260507154915 15 54 8.0 11.3 0.00 0.00 0.00 59 1012.9
20260507154411 15 66 4.8 9.7 0.00 0.00 0.00 55 1012.8
20260507153909 15 104 6.4 12.9 0.00 0.00 0.00 53 1012.9
20260507153405 15 46 1.6 4.8 0.00 0.00 0.00 56 1013.0
20260507152901 14 64 6.4 6.4 0.00 0.00 0.00 55 1013.0
20260507152358 14 84 3.2 6.4 0.00 0.00 0.00 57 1013.3
20260507151854 13 50 9.7 12.9 0.00 0.00 0.00 61 1013.4
20260507151350 13 88 1.6 4.8 0.00 0.00 0.00 59 1013.4
20260507150847 13 43 6.4 11.3 0.00 0.00 0.00 58 1013.5
20260507150344 13 62 0.0 3.2 0.00 0.00 0.00 58 1013.6
20260507145840 13 66 9.7 11.3 0.00 0.00 0.00 60 1013.6
20260507145337 14 39 6.4 11.3 0.00 0.00 0.00 61 1013.5
20260507144834 14 33 9.7 14.5 0.00 0.00 0.00 60 1013.5
20260507144331 13 153 1.6 3.2 0.00 0.00 0.00 59 1013.8
20260507143827 13 33 8.0 11.3 0.00 0.00 0.00 65 1014.0
20260507143325 13 344 6.4 12.9 0.00 0.00 0.00 59 1014.0
20260507142821 13 35 6.4 9.7 0.00 0.00 0.00 59 1014.0
20260507142317 13 20 9.7 16.1 0.00 0.00 0.00 65 1014.1
20260507141814 13 35 12.9 17.7 0.00 0.00 0.00 64 1014.2
20260507141311 13 42 11.3 24.1 0.00 0.00 0.00 61 1014.2
20260507140807 13 31 17.7 22.5 0.00 0.00 0.00 61 1014.4
20260507140304 13 47 16.1 20.9 0.00 0.00 0.00 63 1014.2
20260507135802 13 32 11.3 20.9 0.00 0.00 0.00 65 1014.5
20260507135259 12 30 9.7 16.1 0.00 0.00 0.00 64 1014.6
20260507134755 12 30 6.4 11.3 0.00 0.00 0.00 68 1014.6
20260507134252 12 29 8.0 12.9 0.00 0.00 0.00 66 1014.8
20260507133747 12 357 9.7 14.5 0.00 0.00 0.00 69 1014.5
20260507133244 12 43 9.7 12.9 0.00 0.00 0.00 67 1014.9
20260507132742 12 54 9.7 12.9 0.00 0.00 0.00 69 1015.0
20260507132238 11 55 9.7 14.5 0.00 0.00 0.00 70 1014.9
20260507131735 11 34 6.4 12.9 0.00 0.00 0.00 72 1014.9
20260507131233 11 42 11.3 12.9 0.00 0.00 0.00 72 1015.0
20260507130729 11 34 9.7 12.9 0.00 0.00 0.00 72 1014.9
20260507130227 10 31 8.0 11.3 0.00 0.00 0.00 74 1015.2
20260507125725 10 22 8.0 12.9 0.00 0.00 0.00 73 1015.5
20260507125223 10 32 11.3 12.9 0.00 0.00 0.00 74 1015.0
20260507124719 11 23 8.0 11.3 0.00 0.00 0.00 74 1015.1
20260507124216 10 26 6.4 9.7 0.00 0.00 0.00 74 1015.1
20260507123715 10 36 8.0 12.9 0.00 0.00 0.00 75 1015.0
20260507123212 10 32 12.9 16.1 0.00 0.00 0.00 74 1015.0
20260507122706 10 1 11.3 12.9 0.00 0.00 0.00 73 1015.0
20260507122203 10 41 8.0 16.1 0.00 0.00 0.00 74 1014.9
20260507121659 10 29 6.4 12.9 0.00 0.00 0.00 75 1014.9
20260507121155 10 37 8.0 11.3 0.00 0.00 0.00 75 1014.9
20260507120651 10 341 3.2 6.4 0.00 0.00 0.00 77 1014.6
20260507120148 10 3 3.2 4.8 0.00 0.00 0.00 77 1014.9
20260507115644 10 42 4.8 9.7 0.00 0.00 0.00 77 1015.0
20260507115140 10 27 3.2 6.4 0.00 0.00 0.00 75 1014.6
20260507114636 10 7 9.7 11.3 0.00 0.00 0.00 74 1014.4
20260507114133 10 349 4.8 9.7 0.00 0.00 0.00 75 1014.4
20260507113631 10 317 6.4 6.4 0.00 0.00 0.00 78 1014.4
20260507113127 10 16 4.8 4.8 0.00 0.00 0.00 79 1014.5
20260507112626 10 32 6.4 6.4 0.00 0.00 0.00 79 1014.3
20260507112122 10 4 4.8 9.7 0.00 0.00 0.00 80 1014.3
20260507111619 10 15 6.4 6.4 0.00 0.00 0.00 81 1014.4
20260507111116 10 8 3.2 6.4 0.00 0.00 0.00 81 1014.0
20260507110612 10 8 3.2 6.4 0.00 0.00 0.00 82 1014.1
20260507110109 10 12 1.6 4.8 0.00 0.00 0.00 83 1014.2
20260507105606 10 31 3.2 4.8 0.00 0.00 0.00 83 1014.1
20260507105101 10 49 3.2 6.4 0.00 0.00 0.00 83 1014.2
20260507104559 10 38 4.8 6.4 0.00 0.00 0.00 84 1013.9
20260507104055 10 44 3.2 6.4 0.00 0.00 0.00 85 1013.7
20260507103551 11 30 4.8 9.7 0.00 0.00 0.00 80 1014.0
20260507103048 11 13 4.8 6.4 0.00 0.00 0.00 78 1013.8
20260507102545 10 293 0.0 1.6 0.00 0.00 0.00 82 1013.6
20260507102041 11 11 3.2 3.2 0.00 0.00 0.00 83 1013.6
20260507101536 10 266 0.0 1.6 0.00 0.00 0.00 80 1013.6
20260507101033 10 271 1.6 1.6 0.00 0.00 0.00 80 1013.7
20260507100531 10 264 1.6 1.6 0.00 0.00 0.00 80 1013.6
20260507100028 10 253 1.6 1.6 0.00 0.00 0.00 82 1013.5
20260507095526 10 274 0.0 1.6 0.00 0.00 0.00 84 1013.1
20260507095023 11 15 1.6 1.6 0.00 0.00 0.00 85 1013.1
20260507094519 11 357 1.6 1.6 0.00 0.00 0.00 82 1013.5
20260507094016 11 270 3.2 3.2 0.00 0.00 0.00 77 1013.5
20260507093513 11 273 0.0 1.6 0.00 0.00 0.00 78 1013.3
20260507093012 11 332 1.6 1.6 0.00 0.00 0.00 78 1013.5
20260507092508 10 271 0.0 0.0 0.00 0.00 0.00 79 1013.6
20260507092005 10 281 0.0 0.0 0.00 0.00 0.00 82 1013.6
20260507091502 10 314 0.0 1.6 0.00 0.00 0.00 82 1013.4
20260507090957 10 333 0.0 0.0 0.00 0.00 0.00 83 1013.6
20260507090453 11 320 0.0 0.0 0.00 0.00 0.00 83 1013.4
20260507085950 11 1 0.0 1.6 0.00 0.00 0.00 82 1013.3
20260507085447 11 30 1.6 3.2 0.00 0.00 0.00 76 1013.1
20260507084939 11 304 0.0 3.2 0.00 0.00 0.00 76 1013.3
20260507084436 11 286 3.2 6.4 0.00 0.00 0.00 75 1013.3
20260507083933 11 300 0.0 4.8 0.00 0.00 0.00 75 1013.4
20260507083429 11 297 1.6 3.2 0.00 0.00 0.00 77 1013.5
20260507082925 11 292 0.0 3.2 0.00 0.00 0.00 79 1013.7
20260507082421 11 278 1.6 3.2 0.00 0.00 0.00 78 1013.5
20260507081918 11 283 1.6 1.6 0.00 0.00 0.00 78 1013.5
20260507081414 11 240 0.0 0.0 0.00 0.00 0.00 78 1013.4
20260507080911 11 252 0.0 1.6 0.00 0.00 0.00 77 1013.4
20260507080408 11 273 0.0 0.0 0.00 0.00 0.00 78 1013.5
20260507075903 11 275 0.0 3.2 0.00 0.00 0.00 77 1013.6
20260507075359 11 286 0.0 0.0 0.00 0.00 0.00 77 1013.6
20260507074856 11 331 3.2 3.2 0.00 0.00 0.00 76 1013.7
20260507074353 11 339 1.6 1.6 0.00 0.00 0.00 77 1013.5
20260507073850 11 328 1.6 1.6 0.00 0.00 0.00 78 1013.4
20260507073346 11 287 0.0 0.0 0.00 0.00 0.00 79 1013.3
20260507072844 11 356 1.6 3.2 0.00 0.00 0.00 79 1013.1
20260507072341 11 4 1.6 4.8 0.00 0.00 0.00 78 1013.3
20260507071839 11 6 1.6 4.8 0.00 0.00 0.00 77 1013.0
20260507071336 11 329 1.6 3.2 0.00 0.00 0.00 77 1013.0
20260507070832 11 4 3.2 3.2 0.00 0.00 0.00 77 1013.1
20260507070329 11 319 1.6 3.2 0.00 0.00 0.00 77 1013.3
20260507065826 11 332 1.6 6.4 0.00 0.00 0.00 77 1013.3
20260507065322 11 298 3.2 4.8 0.00 0.00 0.00 78 1013.0
20260507064820 11 320 1.6 3.2 0.00 0.00 0.00 79 1013.0
20260507064318 11 338 4.8 6.4 0.00 0.00 0.00 80 1013.4
20260507063816 11 4 3.2 4.8 0.00 0.00 0.00 80 1013.4
20260507063312 11 349 1.6 4.8 0.00 0.00 0.00 81 1013.4
20260507062809 11 5 3.2 4.8 0.00 0.00 0.00 82 1013.4
20260507062307 11 4 3.2 4.8 0.00 0.00 0.00 82 1013.7
20260507061805 11 335 0.0 3.2 0.00 0.00 0.00 82 1013.7
20260507061302 11 355 3.2 4.8 0.00 0.00 0.00 83 1013.4
20260507060800 11 330 3.2 3.2 0.00 0.00 0.00 83 1013.7
20260507060256 11 23 3.2 4.8 0.00 0.00 0.00 84 1013.8
20260507055753 11 6 3.2 3.2 0.00 0.00 0.00 84 1013.7
20260507055248 11 4 1.6 3.2 0.00 0.00 0.00 84 1014.1
20260507054745 11 337 1.6 4.8 0.00 0.00 0.00 84 1013.9
20260507054241 11 318 1.6 1.6 0.00 0.00 0.00 86 1014.0
20260507053739 11 355 1.6 3.2 0.00 0.00 0.00 87 1013.9
20260507053236 11 26 3.2 4.8 0.00 0.00 0.00 87 1014.1
20260507052736 11 336 1.6 3.2 0.00 0.00 0.00 88 1013.9
20260507052231 11 345 6.4 6.4 0.00 0.00 0.00 89 1013.9
20260507051729 11 17 3.2 9.7 0.00 0.00 0.00 88 1013.8
20260507051226 11 329 3.2 6.4 0.00 0.00 0.00 89 1013.7
20260507050722 11 0 4.8 9.7 0.00 0.00 0.00 89 1013.7
20260507050220 11 320 6.4 12.9 0.00 0.00 0.00 88 1013.7
20260507045716 11 333 4.8 9.7 0.00 0.00 0.00 87 1013.5
20260507045213 11 325 6.4 11.3 0.00 0.00 0.00 86 1013.7
20260507044710 11 333 8.0 14.5 0.00 0.00 0.00 85 1013.6
20260507044206 11 31 14.5 16.1 0.00 0.00 0.00 85 1013.5
20260507043703 11 54 17.7 20.9 0.00 0.00 0.00 85 1013.4
20260507043159 11 19 12.9 20.9 0.00 0.00 0.00 83 1013.4
20260507042656 12 30 19.3 25.7 0.00 0.00 0.00 82 1013.0
20260507042151 12 0 6.4 12.9 0.00 0.00 0.00 81 1013.4
20260507041649 12 0 8.0 20.9 0.00 0.00 0.00 80 1013.1
20260507041144 12 37 9.7 16.1 0.00 0.00 0.00 81 1013.1
20260507040641 13 25 14.5 20.9 0.00 0.00 0.00 81 1013.0
20260507040138 13 40 11.3 14.5 0.00 0.00 0.00 81 1012.2
20260507035634 13 40 11.3 14.5 0.00 0.00 0.00 81 1012.2
20260507035130 13 31 9.7 14.5 0.00 0.00 0.00 81 1012.5
20260507034627 13 22 9.7 12.9 0.00 0.00 0.00 81 1012.9
20260507034125 13 32 11.3 12.9 0.00 0.00 0.00 80 1013.4
20260507033623 13 13 6.4 9.7 0.00 0.00 0.00 80 1013.1
20260507033120 13 336 6.4 9.7 0.00 0.00 0.00 80 1012.9
20260507032617 13 348 4.8 6.4 0.00 0.00 0.00 79 1012.6
20260507032113 13 315 4.8 9.7 0.00 0.00 0.00 80 1012.6
20260507031610 13 347 8.0 11.3 0.00 0.00 0.00 80 1012.9
20260507031107 13 24 12.9 14.5 0.00 0.00 0.00 80 1013.1
20260507030603 13 25 11.3 14.5 0.00 0.00 0.00 80 1013.0
20260507025558 14 34 14.5 14.5 0.00 0.00 0.00 79 1013.1
20260507025055 14 28 6.4 12.9 0.00 0.00 0.00 78 1013.1
20260507024553 14 353 8.0 11.3 0.00 0.00 0.00 78 1013.0
20260507024049 14 327 4.8 9.7 0.00 0.00 0.00 78 1012.6
20260507023544 14 8 3.2 9.7 0.00 0.00 0.00 78 1012.6
20260507023043 14 30 6.4 9.7 0.00 0.00 0.00 78 1012.6
20260507022539 14 340 4.8 6.4 0.00 0.00 0.00 78 1012.6
20260507022034 14 340 4.8 9.7 0.00 0.00 0.00 80 1012.5
20260507021531 15 11 6.4 11.3 0.00 0.00 0.00 78 1012.5
20260507021027 15 1 6.4 9.7 0.00 0.00 0.00 78 1012.4
20260507020525 15 64 4.8 11.3 0.00 0.00 0.00 77 1012.7
20260507020021 15 344 4.8 11.3 0.00 0.00 0.00 77 1012.7
20260507015520 15 290 4.8 6.4 0.00 0.00 0.00 78 1012.5
20260507015017 15 315 3.2 6.4 0.00 0.00 0.00 78 1011.9
20260507014513 15 314 3.2 4.8 0.00 0.00 0.00 79 1011.5
20260507014009 15 22 6.4 9.7 0.00 0.00 0.00 78 1011.9
20260507013506 15 330 8.0 11.3 0.00 0.00 0.00 79 1012.0
20260507013003 15 22 11.3 14.5 0.00 0.00 0.00 79 1012.0
20260507012500 15 32 9.7 12.9 0.00 0.00 0.00 79 1011.9
20260507011956 16 348 6.4 9.7 0.00 0.00 0.00 78 1011.8
20260507011454 16 305 4.8 9.7 0.00 0.00 0.00 76 1012.0
20260507010949 16 23 6.4 12.9 0.00 0.00 0.00 77 1012.0
20260507010444 16 333 6.4 12.9 0.00 0.00 0.00 78 1012.0
20260507005941 16 342 9.7 11.3 0.00 0.00 0.00 78 1011.5
20260507005438 16 15 6.4 9.7 0.00 0.00 0.00 79 1011.8
20260507004935 16 310 3.2 4.8 0.00 0.00 0.00 78 1011.8
20260507004431 16 321 3.2 6.4 0.00 0.00 0.00 79 1011.8
20260507003929 16 23 6.4 9.7 0.00 0.00 0.00 80 1011.5
20260507003424 16 11 6.4 9.7 0.00 0.00 0.00 80 1011.8
20260507002919 16 345 6.4 12.9 0.00 0.00 0.00 81 1011.9
20260507002416 16 345 3.2 6.4 0.00 0.00 0.00 81 1012.2
20260507001913 16 324 8.0 9.7 0.00 0.00 0.00 81 1012.0
20260507001410 16 0 4.8 11.3 0.00 0.00 0.00 80 1011.7
20260507000907 16 354 3.2 4.8 0.00 0.00 0.00 79 1011.3
20260507000402 17 354 1.6 4.8 0.00 0.00 0.00 79 1011.5
20260506235859 17 299 6.4 6.4 0.00 0.00 0.00 79 1011.4
20260506235356 17 19 3.2 6.4 0.00 0.00 0.00 79 1011.7
20260506234851 17 359 4.8 6.4 0.00 0.00 0.00 79 1011.6
20260506234349 17 351 3.2 3.2 0.00 0.00 0.00 79 1011.5
20260506233847 17 301 0.0 0.0 0.00 0.00 0.00 77 1011.2